User: anonymous   Login
Location: Heilwood
(40.6210°N, 78.9150°W)
Time: 00:55:50
(UTC-05:00)
Language:

BREEZE-M DEB (TANK) - Orbit

View from above orbital plane
View from above orbital plane
View from above satellite
View from above satellite

Ground track
Ground track

The orbit data is extracted from the following two-line orbital elements,

1 29649U 06056B   18017.11027726 +.00001938 +00000-0 +25332-3 0  9999
2 29649 049.5018 077.0324 5393336 295.2524 019.1571 05.00094592198481
Epoch (UTC): 17 January 2018 02:38:47
Eccentricity: 0.5393336
inclination: 49.5018°
perigee height: 276 km
apogee height: 15856 km
right ascension of ascending node: 77.0324°
argument of perigee: 295.2524°
revolutions per day: 5.00094592
mean anomaly at epoch: 19.1571°
orbit number at epoch: 19848

The dashed part of the orbit path shows where the satellite is in the earth's shadow,  

DLR